#timestamp,LO_Frequency,Hit,StdDev 
1571338815.2,286047001.8,N
1571338835.9,286047001.9,N
1571338855.7,286047002.4,N
1571338875.6,286047003.1,Y
1571338895.4,286047001.8,P
1571338915.2,286047003.8,P
1571338935.1,286047003.9,P
1571338936.0,286047003.9,Y
1571338955.8,286047001.2,P
1571338975.7,286047000.4,N
1571338995.5,286047000.4,N
1571339015.3,286047002.3,N
1571339035.2,286047000.0,N
1571339055.0,286047001.4,N
1571339055.9,286047001.4,N
1571339075.8,286047004.1,Y
1571339095.6,286047003.8,P
1571339115.4,286047004.3,P
1571339135.3,286047002.0,N
1571339155.1,286047002.6,N
1571339205.9,286047003.7,E
1571339215.8,286047001.9,N
1571339235.6,286046998.4,P
1571339255.5,286046998.5,N
1571339275.3,286047000.6,N
1571339295.2,286047001.2,N
1571339315.9,286047000.4,N
1571339335.7,286046999.9,N
1571339355.6,286046999.9,N
1571339375.4,286047001.2,N
1571339395.2,286046999.7,N
1571339415.1,286047001.9,N
1571339416.0,286047001.9,N
1571339435.8,286047001.3,N
1571339455.7,286047005.1,Y
1571339475.5,286047005.6,P
1571339495.3,286047005.2,N
1571339515.2,286047005.8,N
1571339535.0,286047009.0,Y
1571339535.9,286047009.0,P
1571339555.8,286047004.3,N
1571339575.6,286047001.8,N
1571339595.4,286047000.2,N
1571339615.3,286047001.4,N
1571339635.1,286047004.0,N
1571339655.8,286047003.9,N
1571339675.7,286047003.1,N
1571339695.5,286047006.0,N
1571339715.4,286047005.6,N
1571339735.2,286047005.0,N
1571339755.0,286047004.6,N
1571339755.9,286047004.6,N
1571339775.8,286047004.9,N
1571339795.6,286047005.0,N
1571339815.5,286047007.2,Y
1571339835.3,286047002.3,P
1571339855.1,286047001.7,N
1571339875.9,286047002.2,N
1571339895.7,286047002.7,N
1571339915.5,286047003.9,Y
1571339935.4,286047002.8,P
1571339955.2,286046999.9,N
1571339975.1,286047001.2,N
1571339976.0,286047001.2,N
1571339995.8,286046999.0,N
1571340015.6,286046999.0,N
1571340035.5,286047001.1,N
1571340055.3,286046999.9,N
1571340075.2,286047001.0,N
1571340095.9,286047000.0,N
1571340115.7,286047002.4,N
1571340135.6,286047000.4,N
1571340155.4,286047000.7,N
1571340175.2,286047002.5,N
1571340195.1,286046999.7,N
1571340196.0,286046999.7,N
1571340215.8,286047002.6,N
1571340235.7,286047002.5,N
1571340255.5,286047002.8,N
1571340275.3,286047002.8,N
1571340295.2,286047002.2,N
1571340315.0,286047004.3,Y
1571340315.9,286047004.3,P
1571340335.8,286047002.4,N
1571340355.6,286046999.9,N
1571340375.4,286047000.7,N
1571340395.3,286047000.1,N
1571340415.1,286047001.9,N
1571340435.8,286047002.5,N
1571340455.7,286046998.4,N
1571340475.5,286046999.4,N
1571340495.4,286046999.5,N
1571340545.2,286046998.2,E
1571340555.1,286046998.2,N
1571340575.9,286047002.1,P
1571340595.7,286047002.2,N
1571340615.6,286047001.1,N
1571340635.4,286046999.1,N
1571340655.2,286046999.5,N
1571340675.1,286046998.5,N
1571340676.0,286046998.5,N
1571340695.8,286046998.4,N
1571340715.6,286046998.5,N
1571340735.5,286046998.3,N
1571340755.3,286046998.2,N
1571340775.2,286046998.2,N
1571340795.9,286047000.4,N
1571340815.7,286047001.0,N
1571340835.6,286046999.2,N
1571340855.4,286046996.7,N
1571340875.3,286046999.6,N
1571340895.1,286046996.9,N
1571340896.0,286046996.9,N
1571340915.8,286046997.1,N
1571340935.7,286046997.1,N
1571340955.5,286046996.8,N
1571340975.3,286046996.2,N
1571340995.2,286046993.3,Y
1571341015.0,286046996.3,P
1571341015.9,286046996.3,P
1571341035.8,286046993.5,P
1571341055.6,286046996.4,N
1571341075.4,286046994.4,Y
1571341095.3,286046993.7,P
1571341115.1,286046994.6,P
1571341135.9,286046994.8,P
1571341155.7,286046991.7,Y
1571341175.5,286046998.6,P
1571341195.4,286047000.3,N
1571341215.2,286046998.9,N
1571341235.0,286046997.7,N
1571341236.0,286046997.7,N
1571341255.8,286046997.2,N
1571341275.6,286046997.4,N
1571341295.5,286046993.9,Y
1571341315.3,286046995.4,P
1571341335.1,286046997.6,N
1571341355.9,286046997.8,N
1571341375.7,286046995.4,Y
1571341395.6,286046998.0,P
1571341415.4,286046997.6,P
1571341435.2,286046993.8,P
1571341455.1,286046993.6,Y
1571341456.0,286046993.6,P
1571341475.8,286046998.0,N
1571341495.7,286046995.7,N
1571341515.5,286046995.4,N
1571341535.3,286046994.9,Y
1571341555.2,286047000.5,P
1571341575.0,286046999.7,N
1571341575.9,286046999.7,N
1571341595.8,286047000.6,N
1571341615.6,286046998.3,N
1571341635.4,286046999.0,N
1571341655.3,286046996.9,N
1571341675.1,286046996.9,N
1571341695.8,286046995.4,N
1571341715.7,286046998.0,N
1571341735.5,286046997.6,N
1571341755.4,286046993.7,Y
1571341775.2,286046995.0,P
1571341795.0,286046995.1,P
1571341795.9,286046995.1,P
1571341815.8,286046993.4,Y
1571341835.6,286046999.4,P
1571341855.5,286046998.3,N
1571341875.3,286047000.7,N
1571341895.1,286046998.1,N
1571341915.9,286046999.5,N
1571341935.7,286046997.3,N
1571341955.5,286046997.7,N
1571341975.4,286046997.6,N
1571341995.2,286046997.2,N
1571342015.1,286046997.9,N
1571342016.0,286046997.9,N
1571342035.8,286046995.7,Y
1571342055.6,286046996.8,P
1571342075.5,286046998.0,P
1571342095.3,286046995.8,P
1571342115.1,286046997.8,N
1571342135.9,286046999.0,N
1571342155.7,286046998.1,N
1571342175.6,286046999.1,N
1571342195.4,286046998.6,N
1571342215.2,286046997.9,N
1571342235.1,286046996.1,Y
1571342236.0,286046996.1,P
1571342255.8,286046996.8,P
1571342275.7,286046995.3,P
1571342295.5,286046995.4,Y
1571342315.3,286047000.2,P
1571342335.2,286047001.1,N
1571342355.0,286046999.2,N
1571342355.9,286046999.2,N
1571342375.8,286046998.4,N
1571342395.6,286046998.2,N
